Torna al catalogo

INTELSAT 705

AttivoComunicazioniGEO
NORAD 23528·PAYLOAD· XX

Lanciato Mar 22, 1995 da Cape Canaveral Space Force Station

Loading…

TLE

AggiornatoSource: Space-Track

Epoca: Sep 14, 2026, 08:15 UTC

1 23528U 95013A   26257.34440499 -.00000065  00000-0  00000-0 0  9999
2 23528  11.8775  37.0228 0021386 122.0031 233.2797  0.98971637114416

Traccia INTELSAT 705 in tempo reale con AllMySat

Download on the App Store